STARLINK-1790, 46691

Orbit data source: Space-Track

STARLINK-1790, 46691 is a payload satellite owned by SpaceX/Seattle (US) in LEO that was launched on Sun, 18 Oct 2020 UTC via an FALCON 9 launch vehicle from the Air Force Eastern Test Range (AFETR). Payloads include a variety of satellites, spacecraft, and rockets equipped with specific instruments for various scientific and technological missions. These include communications satellites like Starlink; space stations such as the ISS; scientific satellites like the Hubble; Earth observation satellites from companies like Planet Labs, Umbra, and HawkEye 360; GPS; miniature CubeSats for education and research; and military/defense satellites.

Loading next visibility...
STARLINK-1790 details
Identifier
46691, 2020-073X
Orbit
LEO
Last TLE update14 hours ago
Origin
Flag of USSpaceX/Seattle (US)
ManufacturerSpaceX/Seattle
MissionOperational Commercial Communications
Bus & MotorSTARLINK, Unknown motor
Mass260 kg wet, ~248 kg dry
Launch date (UTC)
2020-10-18 (4 years ago)
Launch vehicle
FALCON 9
Launch site
Air Force Eastern Test Range (AFETR)
Object type
Payload
Rocket body
Debris
Shape & HBRBox + 1 Pan, 8.86 m
Radar Cross Section13.562 m², Large (>1 m²)

Expand to show TLE details & history

TLE from 14 hours ago
0 STARLINK-1790
1 46691U 20073X   24336.91361955  .00000510  00000-0  53112-4 0  9997
2 46691  53.0502 159.0985 0001331  95.1038 265.0103 15.06388963227371
Epoch: 2024-12-01T21:55Z
Definitive object data (Epoch: 2024-12-01T21:55:36.729Z)
Latitude0.00001°
Longitude118.95046°
Altitude548.204 km
Speed7.589 km/s
True Right ascension10h 36m 23s
True Declination0° 00' 00"
Sunlit
Object was in daylight at TLE epoch
Visualization TLE readout
Latitude-5.99455°
Longitude-59.08276°
Altitude549.104 km
Speed7.588 km/s
Apparent Right ascension22h 07m 49s
Apparent Declination-22° 28' 28"
Sunlit
Object is in daylight
Visualization observer readout
Local Sidereal Time09:16:21
Azimuth324.157° NNW
Elevation-69.427°
Doppler factor1
Orbital elements
Apogee altitude548.439 km
Perigee altitude546.595 km
Semi-major axis6,925.654 km
Eccentricity0.0001331
Inclination53.0502°
RAAN159.0985°
Arg. of periapsis95.1038°
True anomaly264.99511°
Mean anomaly265.0103°
Eccentric anomaly265.0027°
Mean motion3.76575 °/min
BSTAR0.000053112
Orbital period95.6 mins
Loading maneuver chart data...
Loading historical data...
Loading historical data...
Loading historical data...
Loading historical data...
Loading historical data...
Loading historical data...
Loading historical data...

STARLINK-1790 Visibility forecast

Observer location: undefined°, undefined

Span
Click to sort rows by Start time (UTC) header in descending order
Start Az.
Max El. time (UTC)
Max El. Az.
Max El.
End time (UTC)
End Az.
6 mins2024-12-02 13:59:37.280Z178.774° S2024-12-02 14:02:37.280Z129.625° SE20.624°2024-12-02 14:05:37.280Z79.47° E
6 mins2024-12-02 15:39:37.280Z257.013° W2024-12-02 15:41:37.280Z307.656° NW37.687°2024-12-02 15:45:37.280Z41.336° NE
4 mins2024-12-02 17:20:37.280Z317.868° NNW2024-12-02 17:22:37.280Z352.373° N15.715°2024-12-02 17:24:37.280Z22.733° NE
5 mins2024-12-02 20:41:37.280Z341.366° N2024-12-02 20:43:37.280Z25.009° NE25.688°2024-12-02 20:46:37.280Z83.254° E
6 mins2024-12-02 22:20:37.280Z294.754° NW2024-12-02 22:23:37.280Z212.136° SW37.169°2024-12-02 22:26:37.280Z152.761° SSE
|